This is the latest recevied weather packets stored in our database for station/object N1ICS-1. If no packets are shown the sender has not sent any weather packets the latest 10 day(s).
| Time | Temp. | Humidity | Pressure | Rain* | Wind** | Luminosity | Snow |
|---|---|---|---|---|---|---|---|
| 1777657501 | 9.44° C | 73% | 1016.2 hPa | 0 mm | - | 1082 W/m² | - |
| 1777657202 | 9.44° C | 76% | 1016.3 hPa | 0 mm | - | 1069 W/m² | - |
| 1777656902 | 9.44° C | 74% | 1016.4 hPa | 0 mm | - | 1152 W/m² | - |
| 1777656602 | 8.89° C | 78% | 1016.3 hPa | 0 mm | - | 1107 W/m² | - |
| 1777656301 | 8.89° C | 80% | 1016.2 hPa | 0 mm | - | 679 W/m² | - |
| 1777656002 | 8.89° C | 76% | 1016.2 hPa | 0 mm | - | 1185 W/m² | - |
| 1777655702 | 8.89° C | 80% | 1016.2 hPa | 0 mm | - | 378 W/m² | - |
| 1777655402 | 9.44° C | 86% | 1016.1 hPa | 0 mm | - | 1260 W/m² | - |
| 1777655101 | 8.33° C | 77% | 1016 hPa | 0 mm | - | 1161 W/m² | - |
| 1777654803 | 7.78° C | 83% | 1015.9 hPa | 0 mm | - | 1240 W/m² | - |
| 1777654502 | 7.78° C | 84% | 1015.8 hPa | 0 mm | - | 363 W/m² | - |
| 1777654201 | 8.33° C | 82% | 1015.9 hPa | 0 mm | - | 922 W/m² | - |
| 1777653901 | 7.78° C | 82% | 1015.9 hPa | 0 mm | - | 950 W/m² | - |
| 1777653602 | 7.22° C | 83% | 1015.8 hPa | 0 mm | - | 663 W/m² | - |
| 1777653302 | 6.67° C | 83% | 1015.7 hPa | 0 mm | - | 453 W/m² | - |
| 1777653002 | 6.67° C | 84% | 1015.7 hPa | 0 mm | - | 366 W/m² | - |
| 1777652702 | 7.22° C | 86% | 1015.7 hPa | 0 mm | - | 302 W/m² | - |
| 1777652402 | 6.67° C | 85% | 1015.4 hPa | 0 mm | - | 384 W/m² | - |
| 1777652102 | 6.67° C | 86% | 1015.3 hPa | 0 mm | - | 328 W/m² | - |
| 1777651802 | 6.67° C | 84% | 1015.5 hPa | 0 mm | - | 338 W/m² | - |
| 1777651501 | 6.67° C | 87% | 1015.4 hPa | 0 mm | - | 302 W/m² | - |
| 1777651202 | 6.67° C | 85% | 1015.3 hPa | 0 mm | - | 245 W/m² | - |
| 1777650902 | 6.67° C | 88% | 1015.4 hPa | 0 mm | - | 348 W/m² | - |
| 1777650602 | 7.22° C | 92% | 1015.3 hPa | 0 mm | - | 1056 W/m² | - |
| 1777650302 | 6.67° C | 93% | 1015.3 hPa | 0 mm | - | 745 W/m² | - |
* Rain latest hour (hover to see other rain measurements)
** Current wind speed in m/s (hover to see current wind gust speed)